When you browse on this site, cookies collect data to enhance your experience and personalize the content and advertising you see.
Visit our Privacy Policy to learn more. By continuing to use the site, you agree to this use of cookies and data.
  • In Hungary
  • List of Countries
  • For 7 days
  • Water Temperature
  • Satellite Maps
  • Weather Map
  • News
  • Weather Widgets
  • user-avatar
    Login

    Hourly Weather Hartford

    Today, 19 November, Monday

    Time Temperature Precipitation Wind Pressure Humidity
    00:00 +5°C° 0 mm 4 mps 767 mmHg 83%
    01:00 +5°C° 0 mm 4 mps 767 mmHg 85%
    02:00 +5°C° 0 mm 4 mps 767 mmHg 87%
    03:00 +5°C° 0 mm 4 mps 766 mmHg 89%
    04:00 +5°C° 0 mm 4 mps 766 mmHg 87%
    05:00 +6°C° 0 mm 5 mps 766 mmHg 85%
    06:00 +6°C° 0 mm 5 mps 766 mmHg 83%
    07:00 +6°C° 0 mm 5 mps 766 mmHg 82%
    08:00 +6°C° 0 mm 5 mps 766 mmHg 80%
    09:00 +6°C° 0 mm 5 mps 766 mmHg 78%
    10:00 +6°C° 0 mm 5 mps 765 mmHg 76%
    11:00 +7°C° 0 mm 5 mps 765 mmHg 75%
    12:00 +7°C° 0 mm 5 mps 765 mmHg 73%
    13:00 +7°C° 0 mm 6 mps 764 mmHg 73%
    14:00 +7°C° 0 mm 6 mps 764 mmHg 72%
    15:00 +7°C° 0 mm 6 mps 763 mmHg 71%
    16:00 +5°C° 0 mm 6 mps 763 mmHg 73%
    17:00 +5°C° 0 mm 6 mps 763 mmHg 74%
    18:00 +5°C° 0 mm 5 mps 763 mmHg 76%
    19:00 +5°C° 0 mm 5 mps 763 mmHg 76%
    20:00 +5°C° 0 mm 5 mps 762 mmHg 76%
    21:00 +5°C° 0 mm 5 mps 762 mmHg 76%
    22:00 +4°C° 0 mm 6 mps 762 mmHg 77%
    23:00 +4°C° 0 mm 6 mps 761 mmHg 77%

    Tomorrow, 20 November, Tuesday

    Time Temperature Precipitation Wind Pressure Humidity
    00:00 +4°C° 0 mm 6 mps 761 mmHg 77%
    01:00 +4°C° 0.2 mm 6 mps 761 mmHg 78%
    02:00 +4°C° 0.2 mm 6 mps 760 mmHg 79%
    03:00 +5°C° 0.2 mm 5 mps 760 mmHg 81%
    04:00 +5°C° 0.2 mm 5 mps 759 mmHg 80%
    05:00 +5°C° 0.2 mm 5 mps 759 mmHg 80%
    06:00 +3°C° 0.2 mm 5 mps 759 mmHg 79%
    07:00 +5°C° 0.1 mm 5 mps 758 mmHg 78%
    08:00 +5°C° 0.1 mm 5 mps 758 mmHg 77%
    09:00 +5°C° 0.1 mm 5 mps 758 mmHg 76%
    10:00 +4°C° 0.1 mm 6 mps 758 mmHg 73%
    11:00 +5°C° 0.1 mm 7 mps 757 mmHg 70%
    12:00 +5°C° 0.1 mm 7 mps 757 mmHg 67%
    13:00 +5°C° 0.1 mm 7 mps 756 mmHg 68%
    14:00 +5°C° 0.1 mm 7 mps 756 mmHg 69%
    15:00 +5°C° 0.1 mm 7 mps 755 mmHg 70%
    16:00 +4°C° 0.2 mm 6 mps 755 mmHg 73%
    17:00 +4°C° 0.2 mm 6 mps 755 mmHg 76%
    18:00 +4°C° 0.2 mm 6 mps 755 mmHg 79%
    19:00 +5°C° 0.3 mm 5 mps 754 mmHg 81%
    20:00 +5°C° 0.3 mm 5 mps 754 mmHg 83%
    21:00 +4°C° 0.3 mm 4 mps 754 mmHg 85%
    22:00 +4°C° 0.2 mm 4 mps 754 mmHg 85%
    23:00 +4°C° 0.2 mm 3 mps 753 mmHg 86%

    Day after tomorrow, 21 November, Wednesday

    Time Temperature Precipitation Wind Pressure Humidity
    00:00 +4°C° 0.2 mm 3 mps 753 mmHg 87%
    01:00 +4°C° 0.3 mm 3 mps 753 mmHg 88%
    02:00 +4°C° 0.3 mm 3 mps 752 mmHg 88%
    03:00 +4°C° 0.3 mm 3 mps 752 mmHg 88%
    04:00 +4°C° 0.4 mm 3 mps 751 mmHg 88%
    05:00 +4°C° 0.4 mm 3 mps 751 mmHg 88%
    06:00 +4°C° 0.4 mm 3 mps 751 mmHg 88%
    07:00 +4°C° 0.1 mm 3 mps 752 mmHg 88%
    08:00 +3°C° 0.1 mm 3 mps 752 mmHg 88%
    09:00 +3°C° 0.1 mm 3 mps 753 mmHg 87%
    10:00 +4°C° 0 mm 4 mps 753 mmHg 85%
    11:00 +4°C° 0 mm 4 mps 754 mmHg 82%
    12:00 +5°C° 0 mm 5 mps 754 mmHg 79%
    13:00 +5°C° 0 mm 5 mps 755 mmHg 78%
    14:00 +5°C° 0 mm 5 mps 755 mmHg 78%
    15:00 +5°C° 0 mm 4 mps 756 mmHg 77%
    16:00 +4°C° 0 mm 4 mps 756 mmHg 80%
    17:00 +4°C° 0 mm 4 mps 757 mmHg 82%
    18:00 +3°C° 0 mm 4 mps 758 mmHg 85%
    19:00 +3°C° 0 mm 4 mps 758 mmHg 85%
    20:00 +3°C° 0 mm 4 mps 759 mmHg 86%
    21:00 +2°C° 0 mm 3 mps 760 mmHg 86%
    22:00 +2°C° 0 mm 3 mps 760 mmHg 86%
    23:00 +2°C° 0 mm 3 mps 760 mmHg 87%

    22 November, Thursday

    Time Temperature Precipitation Wind Pressure Humidity
    00:00 +2°C° 0 mm 2 mps 760 mmHg 87%
    01:00 +2°C° 0 mm 2 mps 760 mmHg 86%
    02:00 +2°C° 0 mm 2 mps 760 mmHg 85%
    03:00 +2°C° 0 mm 2 mps 760 mmHg 85%
    04:00 +2°C° 0 mm 2 mps 760 mmHg 85%
    05:00 +2°C° 0 mm 2 mps 760 mmHg 86%
    06:00 +2°C° 0 mm 2 mps 760 mmHg 86%
    07:00 +3°C° 0 mm 2 mps 760 mmHg 87%
    08:00 +3°C° 0 mm 2 mps 760 mmHg 88%
    09:00 +4°C° 0 mm 2 mps 760 mmHg 89%
    10:00 +4°C° 0.1 mm 2 mps 760 mmHg 88%
    11:00 +5°C° 0.1 mm 2 mps 760 mmHg 87%
    12:00 +6°C° 0.1 mm 2 mps 760 mmHg 86%
    13:00 +6°C° 0 mm 2 mps 760 mmHg 87%
    14:00 +6°C° 0 mm 2 mps 760 mmHg 87%
    15:00 +6°C° 0 mm 2 mps 759 mmHg 88%
    16:00 +5°C° 0 mm 2 mps 759 mmHg 90%
    17:00 +5°C° 0 mm 2 mps 759 mmHg 92%
    18:00 +4°C° 0 mm 2 mps 760 mmHg 94%
    19:00 +4°C° 0 mm 2 mps 760 mmHg 94%
    20:00 +4°C° 0 mm 2 mps 760 mmHg 94%
    21:00 +4°C° 0 mm 2 mps 760 mmHg 94%
    22:00 +4°C° 0 mm 2 mps 760 mmHg 94%
    23:00 +3°C° 0 mm 2 mps 760 mmHg 93%

    23 November, Friday

    Time Temperature Precipitation Wind Pressure Humidity
    00:00 +3°C° 0 mm 2 mps 760 mmHg 93%
    01:00 +3°C° 0 mm 2 mps 760 mmHg 92%
    02:00 +2°C° 0 mm 2 mps 760 mmHg 92%
    03:00 +2°C° 0 mm 2 mps 760 mmHg 91%
    04:00 +2°C° 0 mm 2 mps 760 mmHg 90%
    05:00 +2°C° 0 mm 2 mps 760 mmHg 88%
    06:00 +1°C° 0 mm 3 mps 759 mmHg 87%
    07:00 +1°C° 0 mm 3 mps 759 mmHg 87%
    08:00 +2°C° 0 mm 3 mps 760 mmHg 86%
    09:00 +2°C° 0 mm 3 mps 760 mmHg 86%
    10:00 +3°C° 0 mm 3 mps 759 mmHg 87%
    11:00 +4°C° 0 mm 3 mps 759 mmHg 87%
    12:00 +5°C° 0 mm 3 mps 759 mmHg 88%
    13:00 +5°C° 0 mm 3 mps 759 mmHg 88%
    14:00 +5°C° 0 mm 3 mps 759 mmHg 89%
    15:00 +7°C° 0 mm 3 mps 758 mmHg 90%
    16:00 +6°C° 0 mm 4 mps 759 mmHg 91%
    17:00 +5°C° 0 mm 4 mps 759 mmHg 92%
    18:00 +5°C° 0 mm 4 mps 759 mmHg 93%
    19:00 +5°C° 0.1 mm 4 mps 759 mmHg 93%
    20:00 +5°C° 0.1 mm 4 mps 759 mmHg 93%
    21:00 +5°C° 0.1 mm 3 mps 759 mmHg 93%
    22:00 +5°C° 0 mm 3 mps 759 mmHg 93%
    23:00 +7°C° 0 mm 3 mps 758 mmHg 93%

    24 November, Saturday

    Time Temperature Precipitation Wind Pressure Humidity
    00:00 +7°C° 0 mm 3 mps 758 mmHg 93%
    01:00 +7°C° 0 mm 3 mps 758 mmHg 92%
    02:00 +7°C° 0 mm 3 mps 758 mmHg 92%
    03:00 +6°C° 0 mm 4 mps 758 mmHg 92%
    04:00 +6°C° 0.1 mm 4 mps 758 mmHg 92%
    05:00 +6°C° 0.1 mm 4 mps 757 mmHg 93%
    06:00 +6°C° 0.1 mm 4 mps 757 mmHg 93%
    07:00 +6°C° 0.2 mm 4 mps 757 mmHg 93%
    08:00 +6°C° 0.2 mm 4 mps 758 mmHg 93%
    09:00 +6°C° 0.2 mm 4 mps 758 mmHg 92%
    10:00 +7°C° 0.1 mm 4 mps 758 mmHg 91%
    11:00 +7°C° 0.1 mm 4 mps 758 mmHg 90%
    12:00 +8°C° 0.1 mm 4 mps 757 mmHg 88%
    13:00 +8°C° 0.1 mm 4 mps 757 mmHg 89%
    14:00 +8°C° 0.1 mm 4 mps 757 mmHg 90%
    15:00 +9°C° 0.1 mm 3 mps 757 mmHg 90%
    16:00 +8°C° 0.1 mm 3 mps 757 mmHg 91%
    17:00 +8°C° 0.1 mm 3 mps 757 mmHg 93%
    18:00 +8°C° 0.1 mm 3 mps 757 mmHg 94%
    19:00 +8°C° 0.1 mm 3 mps 758 mmHg 94%
    20:00 +8°C° 0.1 mm 3 mps 758 mmHg 94%
    21:00 +8°C° 0.1 mm 2 mps 758 mmHg 94%
    22:00 +7°C° 0.1 mm 2 mps 758 mmHg 94%
    23:00 +7°C° 0.1 mm 2 mps 758 mmHg 94%
    Show more